Regional Weather Roundup
Issued by NWS

Home | Current Version | Previous Version | Graphics & Text | Print | Product List | Glossary On
Versions: 1 2 3 4 5 6 7 8 9 10 11 12 13 14 15 16 17 18 19 20 21 22 23 24 25 26 27 28 29 30 31 32 33 34 35 36 37 38 39 40 41 42 43 44 45 46 47 48 49 50
000
ASUS45 KBOU 290907
RWRCO

WEATHER ROUNDUP FOR COLORADO
NATIONAL WEATHER SERVICE DENVER/BOULDER CO
300 AM MDT SAT AUG 29 2015

NOTE: "FAIR" INDICATES FEW OR NO CLOUDS BELOW 12000 FEET WITH NO
SIGNIFICANT WEATHER AND/OR OBSTRUCTIONS TO VISIBILITY.

COZ001>005-013-030-031-291000-
...NORTHWEST COLORADO...

CITY           SKY/WX    TMP DP  RH WIND       PRES   REMARKS
CRAIG          CLEAR     51  43  74 E3        30.31S
HAYDEN         NOT AVBL
MEEKER         CLEAR     50  41  71 NE6       30.32S
MOUNT WERNER   NOT AVBL
STEAMBOAT SPGS CLEAR     49  42  76 CALM      30.37S
WALDEN         CLEAR     37  36  93 E6        30.46S
$$

COZ006>008-011-291000-
...WEST CENTRAL VALLEYS...

CITY           SKY/WX    TMP DP  RH WIND       PRES   REMARKS
GRAND JUNCTION CLEAR     61  45  55 SE7       30.17S
MONTROSE       CLEAR     58  46  64 SE6       30.26F
EAGLE          CLEAR     48  43  81 E5        30.40R
RIFLE          CLEAR     55  45  68 SE5       30.26S
DELTA          CLEAR     61  49  65 N8        30.23S
NUCLA          CLEAR     57  41  54 E6        30.28S
$$

COZ017>023-064>068-291000-
...SOUTHWEST COLORADO...

CITY           SKY/WX    TMP DP  RH WIND       PRES   REMARKS
DURANGO        CLEAR     54  45  71 NE6       30.33R
CORTEZ         CLEAR     52  42  69 NE5       30.24R
PAGOSA SPRINGS PTCLDY    57  46  67 CALM      30.41S
TELLURIDE      CLEAR     54  40  59 SE3       30.50S
WOLF CREEK PAS CLOUDY    43  37  81 NE7       30.73F
$$

COZ009-010-012-014-032>034-037-058>063-291000-
...CENTRAL COLORADO...

CITY           SKY/WX    TMP DP  RH WIND       PRES   REMARKS
ASPEN          CLEAR     51  41  68 SW6       30.41F
BUENA VISTA    CLEAR     50  43  77 NW6       30.48S
COPPER MTN     CLEAR     46  34  61 S21       30.71F
BERTHOUD PASS  FAIR      39  28  65 SW7       30.76S
COTTONWOOD PAS CLEAR     55  37  50 W3        30.60S
GUNNISON       CLEAR     48  39  71 NE6       30.47S
KREMMLING      CLEAR     43  41  93 CALM      30.46S
LEADVILLE      CLEAR     38  34  85 E5        30.58F
MONARCH PASS   CLEAR     43  36  75 E14       30.81F
SALIDA         CLEAR     54  43  67 W8        30.52S
SUNLIGHT       CLEAR     50  37  62 NE6       30.64S
WILKERSON PASS PTCLDY    45  36  70 W3        30.71S
$$

COZ069>075-291000-
...SAN LUIS VALLEY/SANGRE DE CRISTO MOUNTAINS...

CITY           SKY/WX    TMP DP  RH WIND       PRES   REMARKS
ALAMOSA        PTCLDY    57  42  57 N6        30.42R
LA VETA PASS   PTCLDY    48  37  66 NE7       30.61S
SAGUACHE       CLEAR     52  41  66 NW8       30.46R
$$

COZ035-036-038>040-291000-
...NORTHERN COLORADO FRONT RANGE...

CITY           SKY/WX    TMP DP  RH WIND       PRES   REMARKS
DENVER INTL AP PTCLDY    61  39  44 SW7       30.27F
DMNS CITY PARK   N/A     61  47  58 E8        30.27S
AURORA         CLEAR     59  41  50 S7        30.30S
FRONT RANGE AP NOT AVBL
ERIE MUNI ARPT CLEAR     55  48  76 CALM      30.26S
BOULDER MUN AP CLEAR     66  43  42 SW5       30.26F
CENTENNIAL     PTCLDY    56  43  61 SE5       30.31F
BROOMFIELD     CLEAR     61  43  51 CALM      30.29S
FORT COLLINS   CLEAR     57  46  67 N6        30.26S
LONGMONT       CLEAR     59  47  64 CALM      30.26F
$$

COZ041-046-047-076>085-087-088-291000-
...PIKES PEAK/PALMER DIVIDE AND SOUTHERN FOOTHILLS...

CITY           SKY/WX    TMP DP  RH WIND       PRES   REMARKS
COLO. SPRINGS  MOCLDY    57  42  57 N7        30.36S
A. F. ACADEMY  CLEAR     50  43  75 N10       30.37S
ELLICOTT       CLEAR    N/A N/A N/A CALM      30.34R
FALCON         CLEAR     53  44  70 MISG      30.40S
FORT CARSON    PTCLDY    57  46  65 NW5       30.33R
LIMON          CLEAR     47  44  90 NW3       30.29S
MONUMENT HILL  CLEAR     50  37  62 S9        30.40S
TRINIDAD       CLEAR     58  49  72 W10       30.30S
$$

COZ042>045-048>051-090-091-291000-
...NORTHEAST COLORADO...

CITY           SKY/WX    TMP DP  RH WIND       PRES   REMARKS
GREELEY ARPT   CLEAR     52  46  82 S3        30.24F
AKRON          CLEAR     62  49  62 S8        30.22F
BURLINGTON     CLEAR     54  48  80 SW6       30.21F
WRAY           CLEAR     57  53  85 W5        30.17S
STERLING       CLEAR     54  46  76 CALM      30.18S
HOLYOKE        CLEAR     55  52  88 W6        30.18S
FORT MORGAN    CLEAR     57  42  56 W7        30.23S
$$

COZ086-089-092>099-291000-
...SOUTHEAST COLORADO...

CITY           SKY/WX    TMP DP  RH WIND       PRES   REMARKS
PUEBLO         CLEAR     64  44  48 N9        30.25S
LA JUNTA       CLEAR     60  47  61 N7        30.21S
LAMAR          CLEAR     57  51  80 CALM      30.17R
SPRINGFIELD    NOT AVBL
$$




USA.gov is the U.S. government's official web portal to all federal, state and local government web resources and services.